GW1647 Weather Reports


Display with metric or nautical units.
time (UTC)temp
F
wind
direction
speed
MPH
gust
MPH
rain 1hr
in
rain 24hr
in
rain mn
in
humidity
%
barometer
mb
20260906093110 79 0 0.0 7.0 0.00 0.00 0.00 80 1015.1
20260906091604 79 0 0.0 5.0 0.00 0.00 0.00 80 1015.1
20260906090125 79 0 0.0 8.0 0.00 0.00 0.00 80 1015.2
20260906084606 79 0 1.0 8.0 0.00 0.00 0.00 79 1015.2
20260906083102 80 0 0.0 4.0 0.00 0.00 0.00 78 1015.0
20260906081604 80 135 1.0 11.0 0.00 0.00 0.00 78 1015.0
20260906080130 80 159 0.0 8.0 0.00 0.00 0.00 77 1015.0
20260906074600 80 140 1.0 10.0 0.00 0.00 0.00 77 1015.1
20260906073105 80 0 0.0 12.0 0.00 0.00 0.00 77 1014.7
20260906071604 81 156 2.0 12.0 0.00 0.00 0.00 77 1014.8
20260906070104 81 0 0.0 9.0 0.00 0.00 0.00 77 1015.0
20260906064556 81 0 0.0 6.0 0.00 0.00 0.00 77 1015.0
20260906063107 81 150 2.0 11.0 0.00 0.00 0.00 76 1015.2
20260906061607 82 151 0.0 11.0 0.00 0.00 0.00 76 1015.2
20260906060107 82 0 1.0 11.0 0.00 0.00 0.00 75 1015.3
20260906054557 82 142 2.0 12.0 0.00 0.00 0.00 75 1015.4
20260906053106 82 0 0.0 6.0 0.00 0.00 0.00 74 1015.3
20260906051605 83 0 2.0 9.0 0.00 0.00 0.00 74 1015.1
20260906050104 83 108 0.0 5.0 0.00 0.00 0.00 74 1015.1
20260906044605 83 132 2.0 5.0 0.00 0.00 0.00 74 1015.2
20260906043104 83 107 0.0 5.0 0.00 0.00 0.00 74 1015.3
20260906041604 83 110 1.0 4.0 0.00 0.00 0.00 74 1015.5
20260906034607 84 84 2.0 4.0 0.00 0.00 0.00 74 1015.4
20260906033106 84 114 1.0 5.0 0.00 0.00 0.00 74 1015.3
20260906031602 84 0 0.0 5.0 0.00 0.00 0.00 74 1015.1
20260906030059 84 108 2.0 4.0 0.00 0.00 0.00 74 1015.0
20260906024608 85 75 0.0 4.0 0.00 0.00 0.00 74 1014.6
20260906023103 85 0 1.0 8.0 0.00 0.00 0.00 73 1014.3
20260906021606 85 115 2.0 5.0 0.00 0.00 0.00 72 1014.2
20260906020112 86 0 1.0 5.0 0.00 0.00 0.00 71 1014.0
20260906014616 86 0 1.0 4.0 0.00 0.00 0.00 69 1013.7
20260906013107 87 97 1.0 3.0 0.00 0.00 0.00 68 1013.4
20260906011619 88 89 1.0 4.0 0.00 0.00 0.00 67 1013.4
20260906010105 88 80 1.0 10.0 0.00 0.00 0.00 66 1013.4
20260906004600 89 130 1.0 10.0 0.00 0.00 0.00 65 1013.2
20260906003108 89 0 1.0 6.0 0.00 0.00 0.00 64 1013.2
20260906001605 90 67 2.0 7.0 0.00 0.00 0.00 62 1013.2
20260906000105 91 139 3.0 11.0 0.00 0.00 0.00 60 1012.9
20260905234558 91 134 6.0 17.0 0.00 0.00 0.00 59 1012.8
20260905233134 91 138 4.0 15.0 0.00 0.00 0.00 59 1012.9
20260905231610 91 142 3.0 12.0 0.00 0.00 0.00 58 1013.0
20260905230105 91 140 4.0 14.0 0.00 0.00 0.00 58 1013.0
20260905224625 91 121 4.0 12.0 0.00 0.00 0.00 57 1012.9
20260905223108 91 124 4.0 15.0 0.00 0.00 0.00 56 1012.9
20260905221608 91 153 2.0 15.0 0.00 0.00 0.00 57 1012.7
20260905220105 91 119 8.0 18.0 0.00 0.00 0.00 56 1012.6
20260905214600 91 134 10.0 19.0 0.00 0.00 0.00 55 1012.6
20260905213103 91 120 3.0 13.0 0.00 0.00 0.00 56 1013.0
20260905211613 91 134 7.0 18.0 0.00 0.00 0.00 55 1013.2
20260905210105 90 132 7.0 17.0 0.00 0.00 0.00 55 1013.4
20260905204606 90 138 7.0 19.0 0.00 0.00 0.00 56 1013.5
20260905203101 89 125 8.0 19.0 0.00 0.00 0.00 55 1013.8
20260905201614 89 126 3.0 17.0 0.00 0.00 0.00 56 1014.3
20260905200107 89 46 5.0 14.0 0.00 0.00 0.00 56 1014.7
20260905194602 88 85 3.0 16.0 0.00 0.00 0.00 57 1015.3
20260905193101 88 61 6.0 17.0 0.00 0.00 0.00 56 1015.4
20260905191611 88 128 8.0 23.0 0.00 0.00 0.00 57 1015.4
20260905190134 87 107 4.0 19.0 0.00 0.00 0.00 63 1015.5
20260905184621 87 75 4.0 17.0 0.00 0.00 0.00 63 1016.2
20260905183106 87 89 9.0 23.0 0.00 0.00 0.00 64 1016.6
20260905181604 87 37 10.0 21.0 0.00 0.00 0.00 67 1016.8
20260905180105 86 61 6.0 15.0 0.00 0.00 0.00 68 1016.9
20260905174602 86 40 3.0 20.0 0.00 0.00 0.00 72 1016.6
20260905173113 86 9 4.0 16.0 0.00 0.00 0.00 71 1016.6
20260905171604 85 353 4.0 20.0 0.00 0.00 0.00 71 1016.8
20260905170116 86 3 5.0 14.0 0.00 0.00 0.00 68 1016.7
20260905164606 86 354 4.0 13.0 0.00 0.00 0.00 67 1016.8
20260905163106 86 340 3.0 11.0 0.00 0.00 0.00 67 1016.9
20260905161604 86 17 3.0 14.0 0.00 0.00 0.00 68 1016.9
20260905160101 88 5 7.0 13.0 0.00 0.00 0.00 67 1016.8
20260905154609 88 331 3.0 9.0 0.00 0.00 0.00 67 1016.4
20260905153105 87 359 0.0 7.0 0.00 0.00 0.00 67 1016.4
20260905151608 86 56 1.0 6.0 0.00 0.00 0.00 71 1016.1
20260905150105 84 88 0.0 2.0 0.00 0.00 0.00 69 1015.9
20260905144603 84 0 1.0 3.0 0.00 0.00 0.00 70 1015.6
20260905143103 84 0 0.0 4.0 0.00 0.00 0.00 69 1015.5
20260905141629 83 0 0.0 3.0 0.00 0.00 0.00 70 1015.1
20260905140104 82 80 1.0 9.0 0.00 0.00 0.00 71 1015.0
20260905134601 81 132 3.0 9.0 0.00 0.00 0.00 74 1014.7
20260905133105 79 109 2.0 3.0 0.00 0.00 0.00 76 1015.0
20260905131632 78 127 0.0 4.0 0.00 0.00 0.00 80 1014.9
20260905130118 76 125 2.0 4.0 0.00 0.00 0.00 82 1014.5
20260905124602 76 122 1.0 4.0 0.00 0.00 0.00 82 1014.3
20260905123109 76 127 0.0 5.0 0.00 0.00 0.00 82 1014.2
20260905121605 76 0 0.0 0.0 0.00 0.00 0.00 81 1013.9
20260905120104 76 0 0.0 0.0 0.00 0.00 0.00 81 1013.6
20260905114601 76 0 0.0 0.0 0.00 0.00 0.00 79 1013.4
20260905113117 77 0 0.0 2.0 0.00 0.00 0.00 77 1013.7
20260905111606 77 140 1.0 3.0 0.00 0.00 0.00 76 1013.6
20260905110104 77 188 1.0 3.0 0.00 0.00 0.00 75 1013.3
20260905104559 78 178 1.0 3.0 0.00 0.00 0.00 75 1013.4
20260905103104 78 146 1.0 3.0 0.00 0.00 0.00 74 1013.5
20260905101629 78 146 1.0 3.0 0.00 0.00 0.00 74 1013.3
20260905100108 79 0 1.0 3.0 0.00 0.00 0.00 73 1013.0
20260905094604 79 176 1.0 4.0 0.00 0.00 0.00 72 1012.8